Station Historical Data
Daily Summary for February 09, 2018 Units:  English    Metric   Both
« Previous Day
Next Day »
Daily Weekly Monthly Yearly Custom
  High: Low: Average:
Temperature: TemperatureF °F 15.0 °F 21 °F
Dew Point: DewpointF °F 9.1 °F 16.6 °F
Humidity: Humidity% 77% 83%
Wind Speed: WindSpeedMPHmph 0.0mph 2.7mph
Wind Gust: WindSpeedGustMPHmph - -
Wind- - SSE
Pressure: PressureIn in 30.17 in -
Precipitation: 0.00 in    
Historical Graphs
 
 
Tabular Data for February 09, 2018
Time Temperature Dew Point Pressure Wind Wind Speed Wind Gust Humidity Rainfall Rate (Hourly)
TemperatureF °F DewpointF °F PressureIn in Calm     Humidity% HourlyPrecipIn in
00:04 15.6 °F 11.4 °F 30.48 in SW 5.0 mph 11.0 mph 83% 0.00 in
00:09 15.7 °F 11.5 °F 30.47 in SW 6.0 mph 12.0 mph 83% 0.00 in
00:14 15.6 °F 11.4 °F 30.47 in SW 6.0 mph 14.0 mph 83% 0.00 in
00:19 15.7 °F 11.5 °F 30.47 in WSW 8.0 mph 11.0 mph 83% 0.00 in
00:24 15.7 °F 11.5 °F 30.47 in SW 8.0 mph 13.0 mph 83% 0.00 in
00:29 15.7 °F 11.5 °F 30.47 in WSW 8.0 mph 14.0 mph 83% 0.00 in
00:34 15.8 °F 11.6 °F 30.48 in WSW 8.0 mph 14.0 mph 83% 0.00 in
00:39 15.7 °F 11.7 °F 30.48 in SW 7.0 mph 14.0 mph 84% 0.00 in
00:44 15.8 °F 11.8 °F 30.48 in SW 6.0 mph 14.0 mph 84% 0.00 in
00:49 15.9 °F 11.7 °F 30.47 in WSW 6.0 mph 13.0 mph 83% 0.00 in
00:54 15.9 °F 11.7 °F 30.47 in WSW 7.0 mph 13.0 mph 83% 0.00 in
00:59 15.9 °F 11.7 °F 30.47 in WSW 6.0 mph 9.0 mph 83% 0.00 in
01:04 15.9 °F 11.7 °F 30.47 in SW 5.0 mph 12.0 mph 83% 0.00 in
01:09 15.9 °F 11.7 °F 30.47 in South 7.0 mph 11.0 mph 83% 0.00 in
01:14 15.9 °F 11.7 °F 30.47 in SSW 8.0 mph 12.0 mph 83% 0.00 in
01:19 15.9 °F 11.4 °F 30.47 in WSW 5.0 mph 12.0 mph 82% 0.00 in
01:24 15.9 °F 11.4 °F 30.47 in West 7.0 mph 10.0 mph 82% 0.00 in
01:29 15.9 °F 11.4 °F 30.47 in SSW 10.0 mph 11.0 mph 82% 0.00 in
01:34 15.9 °F 11.4 °F 30.47 in SW 6.0 mph 12.0 mph 82% 0.00 in
01:39 16.0 °F 11.5 °F 30.47 in SW 7.0 mph 13.0 mph 82% 0.00 in
01:44 15.9 °F 11.4 °F 30.47 in SW 6.0 mph 13.0 mph 82% 0.00 in
01:49 15.9 °F 11.4 °F 30.46 in SW 5.0 mph 13.0 mph 82% 0.00 in
01:54 15.8 °F 11.3 °F 30.46 in WSW 5.0 mph 13.0 mph 82% 0.00 in
02:00 15.8 °F 11.3 °F 30.46 in WSW 5.0 mph 12.0 mph 82% 0.00 in
02:09 15.9 °F 11.4 °F 30.47 in WSW 3.0 mph 10.0 mph 82% 0.00 in
02:14 15.9 °F 11.4 °F 30.47 in SSW 4.0 mph 11.0 mph 82% 0.00 in
02:19 15.9 °F 11.4 °F 30.47 in SW 7.0 mph 8.0 mph 82% 0.00 in
02:24 16.0 °F 11.2 °F 30.47 in South 4.0 mph 10.0 mph 81% 0.00 in
02:29 16.0 °F 11.2 °F 30.48 in WSW 4.0 mph 12.0 mph 81% 0.00 in
02:34 15.9 °F 11.1 °F 30.47 in SW 5.0 mph 13.0 mph 81% 0.00 in
02:39 16.0 °F 11.2 °F 30.48 in SW 5.0 mph 13.0 mph 81% 0.00 in
02:44 16.0 °F 11.2 °F 30.48 in SW 5.0 mph 13.0 mph 81% 0.00 in
02:49 16.0 °F 11.2 °F 30.48 in SW 6.0 mph 10.0 mph 81% 0.00 in
02:54 16.0 °F 11.2 °F 30.48 in SW 6.0 mph 13.0 mph 81% 0.00 in
02:59 15.9 °F 11.1 °F 30.47 in SW 5.0 mph 13.0 mph 81% 0.00 in
03:04 15.9 °F 11.1 °F 30.47 in SW 6.0 mph 11.0 mph 81% 0.00 in
03:09 15.9 °F 11.1 °F 30.47 in WSW 5.0 mph 11.0 mph 81% 0.00 in
03:14 15.9 °F 11.1 °F 30.46 in SW 3.0 mph 9.0 mph 81% 0.00 in
03:19 15.9 °F 10.8 °F 30.47 in SW 6.0 mph 7.0 mph 80% 0.00 in
03:24 15.9 °F 10.8 °F 30.46 in SW 4.0 mph 11.0 mph 80% 0.00 in
03:29 15.9 °F 10.8 °F 30.46 in SW 2.0 mph 9.0 mph 80% 0.00 in
03:34 15.9 °F 10.8 °F 30.45 in SW 4.0 mph 8.0 mph 80% 0.00 in
03:39 15.9 °F 10.8 °F 30.45 in SSE 2.0 mph 7.0 mph 80% 0.00 in
03:44 15.8 °F 10.7 °F 30.46 in SSW 4.0 mph 10.0 mph 80% 0.00 in
03:54 15.9 °F 10.8 °F 30.47 in SW 5.0 mph 10.0 mph 80% 0.00 in
03:59 16.0 °F 10.6 °F 30.46 in SW 5.0 mph 9.0 mph 79% 0.00 in
04:04 15.9 °F 10.5 °F 30.46 in SW 6.0 mph 10.0 mph 79% 0.00 in
04:09 16.0 °F 10.6 °F 30.47 in SW 5.0 mph 11.0 mph 79% 0.00 in
04:14 16.0 °F 10.6 °F 30.48 in SW 5.0 mph 12.0 mph 79% 0.00 in
04:19 16.1 °F 10.4 °F 30.48 in SW 5.0 mph 12.0 mph 78% 0.00 in
04:24 16.1 °F 10.4 °F 30.48 in SW 5.0 mph 11.0 mph 78% 0.00 in
04:34 16.1 °F 10.4 °F 30.47 in SSE 3.0 mph 8.0 mph 78% 0.00 in
04:39 16.1 °F 10.4 °F 30.47 in WSW 1.0 mph 6.0 mph 78% 0.00 in
04:44 16.1 °F 10.4 °F 30.47 in SW 4.0 mph 9.0 mph 78% 0.00 in
04:49 16.1 °F 10.4 °F 30.47 in SW 3.0 mph 7.0 mph 78% 0.00 in
04:54 16.1 °F 10.4 °F 30.47 in SW 4.0 mph 11.0 mph 78% 0.00 in
04:59 16.1 °F 10.2 °F 30.46 in SW 4.0 mph 11.0 mph 77% 0.00 in
05:04 16.0 °F 10.1 °F 30.47 in SW 4.0 mph 8.0 mph 77% 0.00 in
05:09 16.0 °F 10.3 °F 30.47 in SW 3.0 mph 8.0 mph 78% 0.00 in
05:14 16.0 °F 10.3 °F 30.47 in SW 2.0 mph 4.0 mph 78% 0.00 in
05:19 16.0 °F 10.3 °F 30.47 in SW 3.0 mph 7.0 mph 78% 0.00 in
05:24 15.9 °F 10.3 °F 30.47 in SW 2.0 mph 5.0 mph 78% 0.00 in
05:29 15.8 °F 9.9 °F 30.47 in SW 4.0 mph 6.0 mph 77% 0.00 in
05:34 15.8 °F 9.9 °F 30.47 in SW 4.0 mph 6.0 mph 77% 0.00 in
05:39 15.8 °F 9.9 °F 30.48 in SW 5.0 mph 7.0 mph 77% 0.00 in
05:44 15.6 °F 9.7 °F 30.47 in Calm   5.0 mph 77% 0.00 in
05:49 15.5 °F 9.6 °F 30.47 in SW 2.0 mph 5.0 mph 77% 0.00 in
05:54 15.5 °F 9.6 °F 30.47 in SW 2.0 mph 5.0 mph 77% 0.00 in
05:59 15.5 °F 9.6 °F 30.47 in SW 2.0 mph 5.0 mph 77% 0.00 in
06:04 15.5 °F 9.6 °F 30.47 in SW 2.0 mph 4.0 mph 77% 0.00 in
06:09 15.3 °F 9.4 °F 30.47 in SW 2.0 mph 4.0 mph 77% 0.00 in
06:14 15.2 °F 9.3 °F 30.47 in SW 2.0 mph 4.0 mph 77% 0.00 in
06:19 15.1 °F 9.2 °F 30.47 in SW 4.0 mph 5.0 mph 77% 0.00 in
06:24 15.0 °F 9.1 °F 30.47 in SW 2.0 mph 4.0 mph 77% 0.00 in
06:29 15.1 °F 9.2 °F 30.48 in SW 3.0 mph 4.0 mph 77% 0.00 in
06:34 15.1 °F 9.5 °F 30.48 in SW 2.0 mph 4.0 mph 78% 0.00 in
06:39 15.0 °F 9.4 °F 30.48 in Calm   3.0 mph 78% 0.00 in
06:44 15.1 °F 9.2 °F 30.47 in SW 2.0 mph 3.0 mph 77% 0.00 in
06:49 15.1 °F 9.2 °F 30.47 in SSW 1.0 mph 5.0 mph 77% 0.00 in
06:54 15.1 °F 9.2 °F 30.47 in SSW 3.0 mph 4.0 mph 77% 0.00 in
06:59 15.2 °F 9.6 °F 30.47 in SSW 3.0 mph 6.0 mph 78% 0.00 in
07:04 15.3 °F 9.4 °F 30.47 in SSW 3.0 mph 6.0 mph 77% 0.00 in
07:09 15.4 °F 9.5 °F 30.47 in SSW 3.0 mph 5.0 mph 77% 0.00 in
07:14 15.5 °F 9.6 °F 30.47 in SSW 3.0 mph 6.0 mph 77% 0.00 in
07:19 15.5 °F 9.6 °F 30.47 in SSW 3.0 mph 7.0 mph 77% 0.00 in
07:24 15.6 °F 9.7 °F 30.47 in SSW 3.0 mph 7.0 mph 77% 0.00 in
07:29 15.5 °F 9.6 °F 30.47 in SSW 3.0 mph 6.0 mph 77% 0.00 in
07:34 15.6 °F 9.7 °F 30.47 in SSW 1.0 mph 4.0 mph 77% 0.00 in
07:39 15.6 °F 9.7 °F 30.47 in SSW 6.0 mph 7.0 mph 77% 0.00 in
07:44 15.7 °F 9.8 °F 30.47 in SSW 2.0 mph 5.0 mph 77% 0.00 in
07:49 15.8 °F 9.9 °F 30.47 in SSW 3.0 mph 5.0 mph 77% 0.00 in
07:54 15.8 °F 9.9 °F 30.47 in SSW 3.0 mph 7.0 mph 77% 0.00 in
07:59 15.9 °F 10.0 °F 30.48 in SSW 3.0 mph 6.0 mph 77% 0.00 in
08:04 16.1 °F 10.4 °F 30.48 in SSW 3.0 mph 6.0 mph 78% 0.00 in
08:09 16.1 °F 10.4 °F 30.48 in SSW 4.0 mph 8.0 mph 78% 0.00 in
08:14 16.1 °F 10.7 °F 30.48 in SSW 5.0 mph 7.0 mph 79% 0.00 in
08:19 16.1 °F 10.7 °F 30.48 in SW 3.0 mph 7.0 mph 79% 0.00 in
08:24 16.0 °F 10.9 °F 30.48 in SSW 4.0 mph 7.0 mph 80% 0.00 in
08:29 16.1 °F 11.0 °F 30.48 in SSW 3.0 mph 6.0 mph 80% 0.00 in
08:34 16.1 °F 11.3 °F 30.48 in SSW 4.0 mph 6.0 mph 81% 0.00 in
08:39 16.2 °F 11.4 °F 30.48 in SSW 4.0 mph 7.0 mph 81% 0.00 in
08:44 16.2 °F 11.4 °F 30.48 in South 3.0 mph 7.0 mph 81% 0.00 in
08:49 16.2 °F 11.7 °F 30.48 in South 4.0 mph 6.0 mph 82% 0.00 in
08:54 16.2 °F 11.7 °F 30.47 in South 5.0 mph 6.0 mph 82% 0.00 in
08:59 16.4 °F 11.9 °F 30.47 in SSW 2.0 mph 7.0 mph 82% 0.00 in
09:04 16.5 °F 12.0 °F 30.47 in South 5.0 mph 7.0 mph 82% 0.00 in
09:09 16.5 °F 12.0 °F 30.47 in SSW 4.0 mph 7.0 mph 82% 0.00 in
09:14 16.7 °F 12.2 °F 30.47 in South 4.0 mph 9.0 mph 82% 0.00 in
09:19 16.8 °F 12.3 °F 30.46 in South 4.0 mph 7.0 mph 82% 0.00 in
09:24 16.9 °F 12.4 °F 30.46 in South 4.0 mph 7.0 mph 82% 0.00 in
09:29 17.2 °F 12.9 °F 30.46 in SSW 4.0 mph 7.0 mph 83% 0.00 in
09:34 17.4 °F 12.8 °F 30.45 in South 2.0 mph 6.0 mph 82% 0.00 in
09:39 17.6 °F 13.0 °F 30.45 in South 3.0 mph 6.0 mph 82% 0.00 in
09:44 17.7 °F 13.1 °F 30.44 in SSW 3.0 mph 6.0 mph 82% 0.00 in
09:49 17.8 °F 13.2 °F 30.44 in South 4.0 mph 8.0 mph 82% 0.00 in
09:54 18.0 °F 13.2 °F 30.44 in South 5.0 mph 7.0 mph 81% 0.00 in
09:59 18.3 °F 13.4 °F 30.43 in South 4.0 mph 5.0 mph 81% 0.00 in
10:04 18.6 °F 13.7 °F 30.44 in South 3.0 mph 6.0 mph 81% 0.00 in
10:09 18.8 °F 13.7 °F 30.43 in South 2.0 mph 5.0 mph 80% 0.00 in
10:14 18.9 °F 13.7 °F 30.43 in South 3.0 mph 5.0 mph 80% 0.00 in
10:19 19.0 °F 13.8 °F 30.43 in SSE 3.0 mph 9.0 mph 80% 0.00 in
10:24 19.0 °F 13.8 °F 30.43 in SSE 4.0 mph 9.0 mph 80% 0.00 in
10:29 19.2 °F 14.0 °F 30.43 in South 3.0 mph 6.0 mph 80% 0.00 in
10:34 19.3 °F 14.1 °F 30.43 in South 2.0 mph 4.0 mph 80% 0.00 in
10:39 19.3 °F 14.1 °F 30.43 in SSE 2.0 mph 6.0 mph 80% 0.00 in
10:44 19.6 °F 14.4 °F 30.43 in SSE 3.0 mph 6.0 mph 80% 0.00 in
10:49 19.6 °F 14.4 °F 30.43 in SSE 2.0 mph 4.0 mph 80% 0.00 in
10:54 19.6 °F 14.4 °F 30.43 in SSE 2.0 mph 6.0 mph 80% 0.00 in
10:59 19.7 °F 14.5 °F 30.42 in Calm   5.0 mph 80% 0.00 in
11:04 19.9 °F 14.7 °F 30.42 in SSE 3.0 mph 5.0 mph 80% 0.00 in
11:09 20.0 °F 14.8 °F 30.42 in SSE 4.0 mph 6.0 mph 80% 0.00 in
11:14 20.3 °F 15.1 °F 30.42 in SSE 2.0 mph 4.0 mph 80% 0.00 in
11:19 20.6 °F 15.4 °F 30.42 in SSE 2.0 mph 5.0 mph 80% 0.00 in
11:24 20.8 °F 15.6 °F 30.42 in SSE 2.0 mph 5.0 mph 80% 0.00 in
11:29 20.9 °F 15.7 °F 30.42 in SSE 3.0 mph 6.0 mph 80% 0.00 in
11:34 21.1 °F 15.9 °F 30.42 in South 3.0 mph 6.0 mph 80% 0.00 in
11:39 21.4 °F 16.2 °F 30.41 in South 3.0 mph 6.0 mph 80% 0.00 in
11:44 21.7 °F 16.2 °F 30.41 in South 2.0 mph 4.0 mph 79% 0.00 in
11:49 21.8 °F 16.3 °F 30.41 in South 2.0 mph 4.0 mph 79% 0.00 in
11:54 21.9 °F 16.4 °F 30.41 in South 1.0 mph 3.0 mph 79% 0.00 in
11:59 21.9 °F 16.4 °F 30.41 in South 3.0 mph 4.0 mph 79% 0.00 in
12:04 22.1 °F 16.6 °F 30.40 in South 1.0 mph 4.0 mph 79% 0.00 in
12:09 22.4 °F 16.9 °F 30.40 in South 2.0 mph 4.0 mph 79% 0.00 in
12:14 22.5 °F 17.0 °F 30.40 in South 2.0 mph 4.0 mph 79% 0.00 in
12:19 22.7 °F 17.2 °F 30.39 in South 2.0 mph 4.0 mph 79% 0.00 in
12:24 22.7 °F 17.2 °F 30.39 in South 2.0 mph 4.0 mph 79% 0.00 in
12:29 22.7 °F 17.2 °F 30.39 in South 2.0 mph 5.0 mph 79% 0.00 in
12:34 22.7 °F 17.2 °F 30.38 in South 2.0 mph 5.0 mph 79% 0.00 in
12:39 22.8 °F 17.3 °F 30.38 in South 2.0 mph 5.0 mph 79% 0.00 in
12:44 23.1 °F 17.6 °F 30.37 in South 1.0 mph 4.0 mph 79% 0.00 in
12:49 23.3 °F 17.7 °F 30.37 in South 2.0 mph 5.0 mph 79% 0.00 in
12:54 23.3 °F 17.7 °F 30.37 in South 2.0 mph 5.0 mph 79% 0.00 in
12:59 23.6 °F 18.0 °F 30.36 in South 2.0 mph 4.0 mph 79% 0.00 in
13:04 23.8 °F 18.2 °F 30.36 in South 2.0 mph 2.0 mph 79% 0.00 in
13:09 23.9 °F 18.0 °F 30.35 in South 3.0 mph 4.0 mph 78% 0.00 in
13:14 23.8 °F 17.9 °F 30.35 in Calm   5.0 mph 78% 0.00 in
13:19 24.0 °F 18.4 °F 30.34 in Calm   3.0 mph 79% 0.00 in
13:24 24.1 °F 18.5 °F 30.33 in South 1.0 mph 3.0 mph 79% 0.00 in
13:29 24.0 °F 18.4 °F 30.33 in South 1.0 mph 4.0 mph 79% 0.00 in
13:34 24.0 °F 18.4 °F 30.33 in SSE 2.0 mph 4.0 mph 79% 0.00 in
13:39 23.9 °F 18.6 °F 30.32 in SSE 2.0 mph 4.0 mph 80% 0.00 in
13:44 23.8 °F 18.5 °F 30.32 in SE 1.0 mph 4.0 mph 80% 0.00 in
13:49 24.0 °F 19.0 °F 30.32 in Calm   3.0 mph 81% 0.00 in
13:54 24.2 °F 19.2 °F 30.32 in SE 1.0 mph 3.0 mph 81% 0.00 in
13:59 24.2 °F 19.2 °F 30.31 in SE 2.0 mph 3.0 mph 81% 0.00 in
14:04 24.3 °F 19.3 °F 30.31 in SE 2.0 mph 4.0 mph 81% 0.00 in
14:09 24.4 °F 19.4 °F 30.31 in SE 2.0 mph 5.0 mph 81% 0.00 in
14:14 24.6 °F 19.6 °F 30.31 in SE 2.0 mph 4.0 mph 81% 0.00 in
14:19 24.6 °F 19.6 °F 30.30 in East 2.0 mph 8.0 mph 81% 0.00 in
14:24 24.5 °F 19.5 °F 30.30 in ENE 3.0 mph 7.0 mph 81% 0.00 in
14:29 24.4 °F 19.4 °F 30.29 in ENE 4.0 mph 8.0 mph 81% 0.00 in
14:34 24.5 °F 19.5 °F 30.29 in ENE 4.0 mph 8.0 mph 81% 0.00 in
14:39 24.5 °F 19.8 °F 30.28 in ENE 3.0 mph 8.0 mph 82% 0.00 in
14:44 24.5 °F 19.8 °F 30.28 in NE 5.0 mph 7.0 mph 82% 0.00 in
14:49 24.6 °F 19.9 °F 30.28 in NE 6.0 mph 6.0 mph 82% 0.00 in
14:54 24.6 °F 19.9 °F 30.28 in NE 3.0 mph 7.0 mph 82% 0.00 in
14:59 24.5 °F 19.8 °F 30.27 in NE 2.0 mph 6.0 mph 82% 0.00 in
15:04 24.6 °F 20.2 °F 30.27 in NE 3.0 mph 6.0 mph 83% 0.00 in
15:09 24.8 °F 20.4 °F 30.26 in NE 3.0 mph 7.0 mph 83% 0.00 in
15:14 24.9 °F 20.5 °F 30.26 in NE 3.0 mph 7.0 mph 83% 0.00 in
15:19 25.0 °F 20.6 °F 30.25 in NE 4.0 mph 7.0 mph 83% 0.00 in
15:24 25.3 °F 20.9 °F 30.25 in NE 4.0 mph 6.0 mph 83% 0.00 in
15:29 25.5 °F 21.1 °F 30.25 in NE 2.0 mph 4.0 mph 83% 0.00 in
15:34 25.6 °F 21.2 °F 30.24 in NE 4.0 mph 6.0 mph 83% 0.00 in
15:39 25.4 °F 21.0 °F 30.24 in ENE 4.0 mph 9.0 mph 83% 0.00 in
15:44 25.5 °F 21.1 °F 30.24 in NE 4.0 mph 9.0 mph 83% 0.00 in
15:54 25.4 °F 21.2 °F 30.23 in East 6.0 mph 7.0 mph 84% 0.00 in
15:59 25.4 °F 21.2 °F 30.22 in ENE 5.0 mph 5.0 mph 84% 0.00 in
16:04 25.4 °F 21.2 °F 30.22 in ENE 3.0 mph 6.0 mph 84% 0.00 in
16:09 25.5 °F 21.3 °F 30.21 in East 3.0 mph 8.0 mph 84% 0.00 in
16:14 25.4 °F 21.2 °F 30.21 in ENE 4.0 mph 8.0 mph 84% 0.00 in
16:19 25.4 °F 21.2 °F 30.21 in ENE 2.0 mph 8.0 mph 84% 0.00 in
16:29 25.5 °F 21.6 °F 30.21 in ENE 3.0 mph 7.0 mph 85% 0.00 in
16:34 25.5 °F 21.6 °F 30.21 in ENE 1.0 mph 8.0 mph 85% 0.00 in
16:39 25.5 °F 21.6 °F 30.21 in ENE 3.0 mph 8.0 mph 85% 0.00 in
16:44 25.6 °F 21.7 °F 30.21 in ENE 3.0 mph 7.0 mph 85% 0.00 in
16:49 25.7 °F 21.8 °F 30.21 in NE 3.0 mph 5.0 mph 85% 0.00 in
16:54 25.7 °F 22.1 °F 30.20 in NE 4.0 mph 6.0 mph 86% 0.00 in
16:59 25.6 °F 22.0 °F 30.20 in NE 4.0 mph 6.0 mph 86% 0.00 in
17:04 25.5 °F 21.9 °F 30.20 in NE 3.0 mph 6.0 mph 86% 0.00 in
17:09 25.4 °F 21.8 °F 30.20 in NE 3.0 mph 5.0 mph 86% 0.00 in
17:14 25.4 °F 21.8 °F 30.20 in NE 3.0 mph 7.0 mph 86% 0.00 in
17:19 25.3 °F 21.7 °F 30.21 in NE 4.0 mph 9.0 mph 86% 0.00 in
17:24 25.2 °F 21.6 °F 30.21 in NE 4.0 mph 9.0 mph 86% 0.00 in
17:29 25.2 °F 21.6 °F 30.21 in NE 3.0 mph 5.0 mph 86% 0.00 in
17:34 25.2 °F 21.6 °F 30.21 in ENE 3.0 mph 5.0 mph 86% 0.00 in
17:39 25.2 °F 21.9 °F 30.20 in NE 1.0 mph 4.0 mph 87% 0.00 in
17:44 25.1 °F 21.8 °F 30.20 in NE 2.0 mph 5.0 mph 87% 0.00 in
17:49 25.0 °F 21.7 °F 30.20 in NE 4.0 mph 5.0 mph 87% 0.00 in
17:54 25.0 °F 21.7 °F 30.20 in NE 4.0 mph 4.0 mph 87% 0.00 in
17:59 25.0 °F 21.7 °F 30.20 in NE 2.0 mph 5.0 mph 87% 0.00 in
18:04 24.9 °F 21.6 °F 30.19 in NE 3.0 mph 5.0 mph 87% 0.00 in
18:09 24.9 °F 21.6 °F 30.19 in NE 5.0 mph 7.0 mph 87% 0.00 in
18:14 24.9 °F 21.6 °F 30.20 in NE 3.0 mph 5.0 mph 87% 0.00 in
18:19 25.0 °F 21.7 °F 30.20 in NE 2.0 mph 5.0 mph 87% 0.00 in
18:24 25.0 °F 21.7 °F 30.20 in NE 2.0 mph 5.0 mph 87% 0.00 in
18:29 25.0 °F 21.7 °F 30.20 in NE 2.0 mph 4.0 mph 87% 0.00 in
18:34 25.0 °F 21.9 °F 30.19 in NE 1.0 mph 4.0 mph 88% 0.00 in
18:39 25.1 °F 22.0 °F 30.19 in NE 1.0 mph 3.0 mph 88% 0.00 in
18:44 25.2 °F 22.1 °F 30.19 in NE 1.0 mph 5.0 mph 88% 0.00 in
18:49 25.2 °F 22.1 °F 30.19 in NE 3.0 mph 4.0 mph 88% 0.00 in
18:54 25.2 °F 22.1 °F 30.19 in NE 1.0 mph 4.0 mph 88% 0.00 in
18:59 25.2 °F 22.1 °F 30.19 in NE 2.0 mph 5.0 mph 88% 0.00 in
19:04 25.3 °F 22.2 °F 30.19 in NE 1.0 mph 3.0 mph 88% 0.00 in
19:09 25.3 °F 22.2 °F 30.20 in NE 2.0 mph 4.0 mph 88% 0.00 in
19:14 25.4 °F 22.3 °F 30.19 in Calm   3.0 mph 88% 0.00 in
19:19 25.4 °F 22.3 °F 30.19 in NE 2.0 mph 3.0 mph 88% 0.00 in
19:24 25.4 °F 22.3 °F 30.19 in NE 2.0 mph 3.0 mph 88% 0.00 in
19:29 25.6 °F 22.8 °F 30.19 in NE 1.0 mph 3.0 mph 89% 0.00 in
19:34 25.6 °F 22.8 °F 30.19 in NE 1.0 mph 2.0 mph 89% 0.00 in
19:39 25.8 °F 23.0 °F 30.19 in Calm   2.0 mph 89% 0.00 in
19:44 25.9 °F 23.1 °F 30.19 in Calm   3.0 mph 89% 0.00 in
19:49 25.9 °F 23.1 °F 30.19 in Calm   2.0 mph 89% 0.00 in
19:54 25.9 °F 23.1 °F 30.19 in Calm     89% 0.00 in
19:59 26.0 °F 23.2 °F 30.19 in Calm     89% 0.00 in
20:04 26.1 °F 23.3 °F 30.19 in Calm     89% 0.00 in
20:09 26.2 °F 23.4 °F 30.19 in Calm     89% 0.00 in
20:14 26.3 °F 23.5 °F 30.19 in Calm     89% 0.00 in
20:19 26.4 °F 23.6 °F 30.18 in Calm     89% 0.00 in
20:24 26.5 °F 23.7 °F 30.18 in Calm   3.0 mph 89% 0.00 in
20:29 26.5 °F 23.7 °F 30.18 in Calm     89% 0.00 in
20:34 26.5 °F 23.7 °F 30.18 in Calm     89% 0.00 in
20:39 26.6 °F 23.8 °F 30.18 in Calm     89% 0.00 in
20:44 26.7 °F 23.9 °F 30.17 in Calm     89% 0.00 in
20:49 26.7 °F 23.9 °F 30.17 in Calm     89% 0.00 in
20:54 26.8 °F 24.0 °F 30.17 in NE 1.0 mph 3.0 mph 89% 0.00 in
20:59 26.9 °F 24.1 °F 30.17 in Calm   2.0 mph 89% 0.00 in
21:04 26.9 °F 24.1 °F 30.17 in Calm   2.0 mph 89% 0.00 in
21:09 27.0 °F 24.2 °F 30.17 in Calm   1.0 mph 89% 0.00 in
21:14 27.0 °F 24.2 °F 30.17 in Calm     89% 0.00 in
21:19 27.0 °F 24.2 °F 30.18 in NE 2.0 mph 3.0 mph 89% 0.00 in
21:24 26.9 °F 24.1 °F 30.18 in Calm   2.0 mph 89% 0.00 in
21:29 26.9 °F 24.1 °F 30.18 in Calm   1.0 mph 89% 0.00 in
21:34 27.0 °F 24.2 °F 30.18 in Calm   1.0 mph 89% 0.00 in
21:39 27.0 °F 24.2 °F 30.18 in Calm   1.0 mph 89% 0.00 in
21:44 26.9 °F 24.1 °F 30.18 in Calm   2.0 mph 89% 0.00 in
21:49 27.0 °F 24.5 °F 30.18 in Calm   2.0 mph 90% 0.00 in
21:54 27.0 °F 24.5 °F 30.18 in Calm     90% 0.00 in
21:59 27.1 °F 24.6 °F 30.18 in Calm     90% 0.00 in
22:04 27.1 °F 24.6 °F 30.18 in Calm     90% 0.00 in
22:09 27.1 °F 24.6 °F 30.18 in Calm     90% 0.00 in
22:14 27.2 °F 24.7 °F 30.18 in Calm     90% 0.00 in
22:19 27.2 °F 24.7 °F 30.18 in Calm     90% 0.00 in
22:24 27.2 °F 24.7 °F 30.18 in Calm     90% 0.00 in
22:29 27.2 °F 24.7 °F 30.18 in Calm     90% 0.00 in
22:34 27.2 °F 24.7 °F 30.18 in Calm     90% 0.00 in
22:39 27.3 °F 24.8 °F 30.17 in Calm     90% 0.00 in
22:44 27.3 °F 24.8 °F 30.17 in Calm     90% 0.00 in
22:49 27.2 °F 24.7 °F 30.18 in Calm     90% 0.00 in
22:54 27.2 °F 24.7 °F 30.17 in Calm     90% 0.00 in
22:59 27.2 °F 24.7 °F 30.18 in Calm     90% 0.00 in
23:04 27.4 °F 24.9 °F 30.18 in Calm     90% 0.00 in
23:09 27.5 °F 25.0 °F 30.18 in Calm     90% 0.00 in
23:14 27.5 °F 25.0 °F 30.18 in Calm     90% 0.00 in
23:19 27.4 °F 24.9 °F 30.18 in Calm     90% 0.00 in
23:24 27.4 °F 24.9 °F 30.18 in Calm     90% 0.00 in
23:29 27.5 °F 25.0 °F 30.18 in Calm     90% 0.00 in
23:34 27.4 °F 24.9 °F 30.17 in Calm     90% 0.00 in
23:39 27.5 °F 25.0 °F 30.17 in Calm     90% 0.00 in
23:44 27.6 °F 25.1 °F 30.17 in Calm     90% 0.00 in
23:49 27.7 °F 25.2 °F 30.18 in Calm     90% 0.00 in
23:54 27.7 °F 25.2 °F 30.18 in Calm     90% 0.00 in
23:59 27.9 °F 25.3 °F 30.18 in Calm     90% 0.00 in
Buffalo, New York, USA
Compliments of Weather Underground - 2.5 mb